W2TAO Weather Reports


time (UTC)temp
F
wind
direction
speed
knots
gust
knots
rain 1hr
in
rain 24hr
in
rain mn
in
humidity
%
barometer
mb
20260510094732 50 302 0.9 1.7 0.00 0.00 0.00 99 1012.6
20260510094228 50 225 0.0 1.7 0.00 0.00 0.00 99 1012.7
20260510093724 50 354 0.9 1.7 0.00 0.00 0.00 99 1012.5
20260510093222 50 350 1.7 1.7 0.00 0.00 0.00 99 1012.4
20260510092718 50 36 1.7 1.7 0.00 0.00 0.00 99 1012.3
20260510092214 50 219 0.9 1.7 0.00 0.00 0.00 99 1012.3
20260510091709 50 312 0.0 0.9 0.00 0.00 0.00 99 1012.5
20260510091206 50 353 0.0 1.7 0.00 0.00 0.00 99 1012.5
20260510090703 50 297 0.0 0.9 0.00 0.00 0.00 99 1012.3
20260510090200 50 302 0.9 1.7 0.00 0.00 0.00 99 1012.1
20260510085655 50 296 0.0 0.9 0.00 0.00 0.00 99 1012.0
20260510085150 50 282 1.7 1.7 0.00 0.00 0.00 99 1012.0
20260510084647 50 224 0.0 0.9 0.00 0.00 0.00 99 1011.9
20260510084143 50 5 0.0 0.0 0.00 0.00 0.00 99 1012.2
20260510083640 50 224 0.0 0.9 0.00 0.00 0.00 99 1012.1
20260510083137 50 259 1.7 1.7 0.00 0.00 0.00 99 1012.1
20260510082633 50 285 0.0 0.9 0.00 0.00 0.00 99 1012.1
20260510082129 50 328 0.0 2.6 0.00 0.00 0.00 99 1012.2
20260510081624 50 269 0.0 1.7 0.00 0.00 0.00 99 1012.3
20260510081120 50 32 0.0 0.9 0.00 0.00 0.00 99 1012.4
20260510080619 50 223 0.0 1.7 0.00 0.00 0.00 99 1012.3
20260510080116 50 304 0.0 0.9 0.00 0.00 0.00 99 1012.3
20260510075613 50 264 0.9 1.7 0.00 0.00 0.00 99 1012.7
20260510075110 50 293 0.0 0.9 0.00 0.00 0.00 99 1012.7
20260510074607 50 302 0.9 2.6 0.00 0.00 0.00 99 1012.5
20260510074103 50 126 1.7 2.6 0.00 0.00 0.00 99 1012.4
20260510073559 50 59 0.0 0.9 0.00 0.00 0.00 99 1012.7
20260510073056 50 218 0.0 0.0 0.00 0.00 0.00 99 1012.8
20260510072553 50 299 0.0 0.0 0.00 0.00 0.00 99 1012.9
20260510072048 50 337 0.0 0.0 0.00 0.00 0.00 99 1012.9
20260510071545 50 278 0.9 0.9 0.00 0.00 0.00 99 1012.7
20260510071043 50 301 0.0 0.9 0.00 0.00 0.00 99 1012.6
20260510070539 50 89 0.0 1.7 0.00 0.00 0.00 99 1012.7
20260510070037 50 107 0.0 1.7 0.00 0.00 0.00 99 1012.9
20260510065533 50 229 0.0 0.9 0.00 0.00 0.00 99 1013.0
20260510065029 50 89 0.0 0.9 0.00 0.00 0.00 99 1012.9
20260510064526 50 245 0.0 0.9 0.00 0.00 0.00 99 1013.0
20260510064022 50 248 0.0 1.7 0.00 0.00 0.00 99 1013.0
20260510063519 50 246 0.9 1.7 0.00 0.00 0.00 99 1013.0
20260510063017 50 235 1.7 2.6 0.00 0.00 0.00 99 1013.0
20260510062512 50 248 0.9 1.7 0.00 0.00 0.00 99 1012.9
20260510062007 50 248 0.0 1.7 0.00 0.00 0.00 99 1013.1
20260510061505 50 323 2.6 2.6 0.00 0.00 0.00 99 1012.6
20260510061001 50 249 0.0 1.7 0.00 0.00 0.00 99 1012.6
20260510060458 50 250 0.9 1.7 0.00 0.00 0.00 99 1012.6
20260510055953 50 209 0.9 2.6 0.00 0.00 0.00 99 1012.5
20260510055449 50 247 1.7 1.7 0.00 0.00 0.00 99 1012.7
20260510054948 50 154 0.0 1.7 0.00 0.00 0.00 99 1012.6
20260510054443 50 231 0.9 1.7 0.00 0.00 0.00 99 1012.7
20260510053938 50 235 0.9 1.7 0.00 0.00 0.00 99 1012.7
20260510053434 50 237 1.7 1.7 0.00 0.00 0.00 99 1012.7
20260510052930 50 215 1.7 1.7 0.00 0.00 0.00 99 1013.0
20260510052426 50 236 1.7 1.7 0.00 0.00 0.00 99 1013.0
20260510051922 50 251 1.7 1.7 0.00 0.00 0.00 99 1012.7
20260510051419 50 299 0.9 1.7 0.00 0.00 0.00 99 1012.7
20260510050915 50 239 1.7 1.7 0.00 0.00 0.00 99 1012.7
20260510050412 50 269 0.9 3.5 0.00 0.00 0.00 99 1012.7
20260510045909 50 215 1.7 1.7 0.00 0.00 0.00 99 1012.5
20260510045406 50 232 0.9 1.7 0.00 0.00 0.00 99 1012.4
20260510044903 50 245 0.0 4.3 0.00 0.00 0.00 99 1012.5
20260510044400 50 251 1.7 2.6 0.00 0.00 0.00 99 1012.1
20260510043857 50 181 0.0 2.6 0.00 0.00 0.00 99 1012.4
20260510043352 50 224 0.0 2.6 0.00 0.00 0.00 99 1012.5
20260510042851 50 269 0.0 4.3 0.00 0.00 0.00 99 1012.5
20260510042346 50 233 3.5 4.3 0.00 0.00 0.00 99 1012.3
20260510041843 50 236 2.6 2.6 0.00 0.00 0.00 99 1012.2
20260510041340 49 248 1.7 1.7 0.00 0.00 0.00 99 1012.3
20260510040837 49 226 1.7 1.7 0.00 0.00 0.00 99 1012.1
20260510040334 49 282 0.9 1.7 0.00 0.00 0.00 99 1012.1
20260510035829 49 293 0.0 0.9 0.00 0.35 0.35 99 1012.2
20260510035326 49 265 0.9 1.7 0.00 0.35 0.35 99 1012.2
20260510034821 49 94 1.7 1.7 0.00 0.35 0.35 99 1012.3
20260510034319 49 212 0.0 0.9 0.00 0.35 0.35 99 1012.1
20260510033815 49 221 0.0 1.7 0.00 0.35 0.35 99 1012.0
20260510033313 48 281 0.9 0.9 0.00 0.35 0.35 99 1012.2
20260510032809 49 237 0.0 1.7 0.00 0.35 0.35 99 1012.1
20260510032306 48 246 0.0 1.7 0.00 0.35 0.35 99 1012.0
20260510031801 48 304 0.0 1.7 0.00 0.35 0.35 99 1012.2
20260510031258 48 224 0.0 1.7 0.00 0.35 0.35 99 1012.1
20260510030757 48 283 0.9 1.7 0.00 0.35 0.35 99 1012.2
20260510030254 47 348 0.0 0.0 0.00 0.35 0.35 99 1012.1
20260510025751 47 224 0.0 0.0 0.00 0.35 0.35 99 1012.1
20260510025249 47 105 1.7 1.7 0.00 0.35 0.35 99 1011.9
20260510024745 47 60 0.0 0.0 0.00 0.35 0.35 99 1012.1
20260510024242 47 76 0.0 0.9 0.00 0.35 0.35 99 1012.2
20260510023738 46 315 0.0 0.0 0.00 0.35 0.35 99 1012.2
20260510023235 47 130 0.0 0.0 0.00 0.35 0.35 99 1012.1
20260510022732 47 124 0.0 0.9 0.00 0.35 0.35 99 1012.1
20260510022231 47 32 0.0 0.0 0.00 0.35 0.35 99 1012.2
20260510021726 47 32 0.0 0.0 0.00 0.35 0.35 99 1012.1
20260510021224 47 89 0.0 0.0 0.00 0.35 0.35 99 1011.9
20260510020719 47 126 0.0 0.0 0.00 0.35 0.35 99 1011.9
20260510020219 47 32 0.0 0.9 0.00 0.35 0.35 99 1012.0
20260510015715 47 32 0.0 0.0 0.00 0.35 0.35 99 1011.9
20260510015212 48 44 0.9 1.7 0.00 0.35 0.35 99 1011.9
20260510014707 47 44 0.0 0.9 0.00 0.35 0.35 99 1012.0
20260510014206 47 257 0.0 0.0 0.00 0.35 0.35 99 1012.1
20260510013706 47 257 0.0 0.9 0.00 0.35 0.35 99 1012.0
20260510013202 48 293 0.0 0.0 0.00 0.35 0.35 99 1011.9
20260510012701 48 329 0.0 0.9 0.00 0.35 0.35 99 1011.6
20260510012157 48 53 0.9 0.9 0.00 0.35 0.35 99 1011.7
20260510011652 49 147 0.0 0.0 0.00 0.35 0.35 99 1012.0
20260510011148 49 282 0.9 0.9 0.00 0.35 0.35 99 1012.0
20260510010644 49 221 0.9 0.9 0.00 0.35 0.35 99 1011.9
20260510010142 49 345 0.0 0.9 0.00 0.35 0.35 99 1011.8
20260510005637 49 348 0.0 0.9 0.00 0.35 0.35 99 1011.6
20260510005135 49 52 0.0 0.9 0.00 0.35 0.35 99 1011.6
20260510004633 49 110 0.0 0.0 0.00 0.35 0.35 99 1011.6
20260510004131 49 116 0.0 0.0 0.00 0.35 0.35 99 1011.6
20260510003627 49 324 0.0 1.7 0.00 0.35 0.35 99 1011.4
20260510003123 50 324 0.0 1.7 0.00 0.35 0.35 99 1011.4
20260510002623 50 235 0.0 0.9 0.00 0.35 0.35 99 1011.2
20260510002121 50 233 0.0 1.7 0.00 0.35 0.35 99 1011.3
20260510001617 50 256 0.0 1.7 0.00 0.35 0.35 99 1011.2
20260510001116 51 198 0.0 0.9 0.00 0.35 0.35 99 1011.3
20260510000616 51 305 1.7 1.7 0.00 0.35 0.35 99 1011.2
20260510000114 51 233 0.0 0.0 0.00 0.35 0.35 99 1011.3
20260509235610 52 224 0.0 0.0 0.00 0.35 0.35 99 1011.1
20260509235107 52 119 0.9 0.9 0.00 0.35 0.35 99 1011.1
20260509234603 52 212 0.0 1.7 0.00 0.35 0.35 99 1011.1
20260509234101 52 210 0.0 1.7 0.00 0.35 0.35 99 1011.0
20260509233558 52 234 1.7 1.7 0.00 0.35 0.35 99 1010.5
20260509233055 52 245 1.7 1.7 0.00 0.35 0.35 99 1010.5
20260509232551 52 208 1.7 2.6 0.00 0.35 0.35 99 1010.6
20260509232049 52 226 0.0 1.7 0.00 0.35 0.35 99 1010.5
20260509231545 52 246 0.0 1.7 0.00 0.35 0.35 98 1010.5
20260509231043 53 315 0.0 1.7 0.00 0.35 0.35 98 1010.6
20260509230539 53 232 0.0 0.9 0.00 0.35 0.35 98 1010.7
20260509230037 53 146 0.9 3.5 0.00 0.35 0.35 98 1010.6
20260509225532 53 258 2.6 3.5 0.00 0.35 0.35 98 1010.4
20260509225027 54 55 0.0 1.7 0.00 0.35 0.35 98 1010.6
20260509224523 54 52 0.9 1.7 0.00 0.35 0.35 98 1010.6
20260509224020 54 49 0.0 2.6 0.00 0.35 0.35 98 1010.8
20260509223517 54 223 0.0 1.7 0.00 0.35 0.35 98 1010.6
20260509223015 53 235 0.0 1.7 0.00 0.35 0.35 98 1010.7
20260509222511 53 48 0.0 1.7 0.00 0.35 0.35 98 1010.8
20260509222006 53 155 0.0 0.0 0.00 0.35 0.35 98 1010.8
20260509221502 53 235 0.0 0.9 0.00 0.35 0.35 98 1011.1
20260509220958 53 280 0.0 3.5 0.00 0.35 0.35 98 1011.0
20260509220455 53 203 0.9 1.7 0.00 0.35 0.35 98 1011.0
20260509215950 53 240 0.9 2.6 0.00 0.35 0.35 97 1010.8
20260509215446 53 225 1.7 2.6 0.00 0.35 0.35 98 1010.8
20260509214944 53 129 0.0 1.7 0.00 0.35 0.35 98 1011.1
20260509214441 53 211 0.0 2.6 0.00 0.35 0.35 98 1011.0
20260509213938 53 198 0.9 2.6 0.00 0.35 0.35 99 1011.0
20260509213433 53 260 1.7 3.5 0.00 0.35 0.35 99 1011.1
20260509212931 53 215 0.9 1.7 0.00 0.35 0.35 99 1011.0
20260509212429 52 234 0.0 3.5 0.00 0.35 0.35 99 1011.0
20260509211924 52 248 1.7 1.7 0.02 0.35 0.35 99 1011.1
20260509211420 52 249 0.0 0.9 0.05 0.35 0.35 99 1011.0
20260509210917 51 141 0.0 1.7 0.05 0.34 0.34 99 1011.2
20260509210414 51 77 1.7 1.7 0.07 0.34 0.34 99 1011.3
20260509205910 51 332 1.7 1.7 0.07 0.34 0.34 99 1011.2
20260509205409 52 269 0.0 1.7 0.05 0.33 0.33 99 1011.4
20260509204906 52 248 0.9 1.7 0.05 0.32 0.32 99 1011.4
20260509204402 52 233 0.0 2.6 0.02 0.32 0.32 99 1011.5
20260509203859 52 244 1.7 1.7 0.02 0.32 0.32 99 1011.3
20260509203355 52 233 0.0 3.5 0.00 0.31 0.31 99 1011.3
20260509202853 52 228 0.0 1.7 0.00 0.31 0.31 99 1011.3
20260509202348 53 222 0.0 1.7 0.00 0.31 0.31 99 1011.5
20260509201843 52 151 0.9 0.9 0.00 0.31 0.31 99 1011.4
20260509201339 51 0 0.9 1.7 0.00 0.31 0.31 99 1011.5
20260509200836 52 287 1.7 2.6 0.00 0.31 0.31 99 1011.7
20260509200331 52 195 0.0 2.6 0.02 0.31 0.31 99 1011.8
20260509195828 51 213 0.9 1.7 0.05 0.31 0.31 99 1011.8
20260509195328 51 243 1.7 1.7 0.05 0.31 0.31 99 1011.9
20260509194827 51 233 0.0 2.6 0.05 0.30 0.30 99 1012.0
20260509194324 51 244 0.9 1.7 0.05 0.30 0.30 99 1012.0
20260509193821 51 252 1.7 1.7 0.02 0.29 0.29 99 1012.2
20260509193321 51 224 0.0 2.6 0.02 0.29 0.29 99 1012.3
20260509192817 51 244 1.7 1.7 0.02 0.29 0.29 99 1012.3
20260509192313 51 248 1.7 1.7 0.02 0.29 0.29 99 1012.4
20260509191808 51 232 1.7 2.6 0.05 0.29 0.29 99 1012.5
20260509191305 50 280 2.6 5.2 0.05 0.28 0.28 99 1012.4
20260509190800 51 251 2.6 6.1 0.09 0.28 0.28 99 1012.5
20260509190258 50 250 4.3 8.7 0.12 0.28 0.28 99 1012.5
20260509185755 51 292 2.6 3.5 0.09 0.26 0.26 99 1012.6
20260509185251 51 258 1.7 3.5 0.07 0.26 0.26 99 1012.7
20260509184749 51 240 2.6 3.5 0.07 0.25 0.25 99 1012.6
20260509184246 51 263 2.6 4.3 0.07 0.24 0.24 99 1012.6
20260509183742 51 231 2.6 5.2 0.05 0.24 0.24 99 1012.6
20260509183238 51 208 0.9 3.5 0.09 0.23 0.23 99 1012.9
20260509182733 51 237 1.7 3.5 0.12 0.22 0.22 99 1012.7
20260509182231 51 222 1.7 3.5 0.14 0.22 0.22 99 1012.6
20260509181728 51 193 0.0 2.6 0.12 0.20 0.20 99 1012.8
20260509181226 51 198 2.6 4.3 0.09 0.19 0.19 99 1012.8
20260509180723 51 238 1.7 2.6 0.07 0.18 0.18 99 1012.9
20260509180219 51 219 1.7 7.0 0.05 0.18 0.18 99 1012.8
20260509175716 51 238 0.9 5.2 0.02 0.17 0.17 99 1012.6
20260509175212 51 233 2.6 2.6 0.00 0.17 0.17 99 1012.7
20260509174707 51 135 0.0 2.6 0.02 0.17 0.17 99 1012.8
20260509174203 51 230 1.7 1.7 0.02 0.17 0.17 99 1012.7
20260509173659 51 269 0.0 3.5 0.02 0.17 0.17 99 1012.5
20260509173155 51 250 2.6 4.3 0.02 0.17 0.17 99 1012.7
20260509172651 51 221 0.9 5.2 0.02 0.16 0.16 99 1012.6
20260509172148 51 196 0.9 3.5 0.02 0.16 0.16 99 1012.5
20260509171643 51 226 1.7 3.5 0.00 0.16 0.16 99 1012.6
20260509171140 51 235 0.9 3.5 0.00 0.16 0.16 99 1012.6
20260509170637 51 227 0.9 4.3 0.02 0.16 0.16 99 1012.6
20260509170133 51 290 1.7 1.7 0.02 0.16 0.16 99 1012.6
20260509165631 51 229 1.7 2.6 0.00 0.15 0.15 99 1012.6
20260509165127 51 244 1.7 1.7 0.00 0.15 0.15 99 1012.7
20260509164623 50 235 0.0 2.6 0.02 0.15 0.15 99 1012.8
20260509164119 51 238 1.7 1.7 0.00 0.15 0.15 99 1012.7
20260509163617 51 280 0.0 1.7 0.00 0.15 0.15 99 1012.7
20260509163112 50 244 2.6 2.6 0.00 0.15 0.15 99 1012.6
20260509162610 50 289 1.7 3.5 0.00 0.15 0.15 99 1012.5
20260509162106 50 136 0.9 3.5 0.00 0.15 0.15 99 1012.5
20260509161602 50 257 0.0 1.7 0.00 0.15 0.15 99 1012.5
20260509161102 50 215 0.0 1.7 0.02 0.15 0.15 99 1012.6
20260509160558 50 89 0.0 1.7 0.02 0.15 0.15 99 1012.7
20260509160054 50 48 0.0 1.7 0.00 0.15 0.15 99 1013.0
20260509155551 50 233 0.9 2.6 0.00 0.15 0.15 99 1013.3
20260509155047 50 91 0.9 1.7 0.02 0.15 0.15 99 1013.4
20260509154543 50 352 0.0 1.7 0.02 0.15 0.15 99 1013.3
20260509154041 50 271 0.9 1.7 0.02 0.14 0.14 99 1013.4
20260509153537 50 243 1.7 2.6 0.02 0.14 0.14 99 1013.5
20260509153034 50 304 0.0 1.7 0.02 0.14 0.14 99 1013.5
20260509152530 49 230 1.7 1.7 0.02 0.13 0.13 98 1013.6
20260509152027 49 267 1.7 2.6 0.05 0.13 0.13 98 1013.5
20260509151523 49 249 1.7 1.7 0.05 0.13 0.13 98 1013.3
20260509151021 49 329 0.0 3.5 0.02 0.13 0.13 98 1013.3
20260509150518 49 328 1.7 1.7 0.02 0.12 0.12 98 1013.2
20260509150017 49 185 0.0 1.7 0.05 0.12 0.12 97 1013.3
20260509145512 49 232 1.7 2.6 0.02 0.12 0.12 97 1013.4
20260509145007 49 304 0.0 1.7 0.00 0.11 0.11 97 1013.1
20260509144505 49 237 2.6 3.5 0.00 0.11 0.11 97 1013.4
20260509144002 49 294 1.7 2.6 0.00 0.11 0.11 97 1013.4
20260509143459 49 116 0.0 1.7 0.02 0.11 0.11 97 1013.3
20260509142955 49 254 1.7 1.7 0.02 0.11 0.11 97 1013.2
20260509142452 49 263 0.9 1.7 0.00 0.11 0.11 97 1013.0
20260509141948 49 32 0.0 0.0 0.00 0.11 0.11 98 1013.1
20260509141444 49 351 0.9 0.9 0.02 0.11 0.11 98 1013.2
20260509140941 49 224 0.0 0.9 0.02 0.11 0.11 98 1013.1
20260509140437 49 228 0.0 1.7 0.02 0.11 0.11 98 1013.2
20260509135936 48 103 0.0 1.7 0.05 0.11 0.11 98 1013.2
20260509135433 48 269 0.0 0.0 0.02 0.10 0.10 98 1013.1
20260509134930 48 15 0.9 1.7 0.00 0.10 0.10 98 1013.1
20260509134427 48 1 0.0 0.9 0.02 0.10 0.10 98 1013.3
20260509133925 48 258 0.9 1.7 0.02 0.10 0.10 98 1013.5
20260509133421 48 110 1.7 1.7 0.00 0.09 0.09 98 1013.6
20260509132920 48 112 0.9 1.7 0.00 0.09 0.09 98 1013.5
20260509132417 48 10 0.0 1.7 0.02 0.09 0.09 99 1013.6
20260509131914 48 260 2.6 2.6 0.02 0.09 0.09 98 1013.5
20260509131411 48 296 0.9 1.7 0.00 0.09 0.09 99 1013.4
20260509130908 47 168 0.9 0.9 0.00 0.09 0.09 99 1013.6
20260509130403 47 318 0.9 0.9 0.00 0.09 0.09 99 1013.7
20260509125901 47 110 0.0 0.9 0.02 0.09 0.09 99 1013.5
20260509125357 47 344 0.0 0.9 0.02 0.09 0.09 99 1013.4
20260509124853 47 40 0.9 1.7 0.00 0.09 0.09 99 1013.5
20260509124350 47 240 1.7 2.6 0.02 0.09 0.09 99 1013.7
20260509123848 46 219 0.9 2.6 0.00 0.08 0.08 99 1013.7
20260509123345 46 224 0.0 1.7 0.00 0.08 0.08 99 1013.5
20260509122841 46 251 2.6 3.5 0.00 0.08 0.08 99 1013.3
20260509122338 46 288 0.9 0.9 0.00 0.08 0.08 99 1013.2
20260509121835 46 120 0.9 1.7 0.00 0.08 0.08 99 1013.3
20260509121332 46 309 0.9 1.7 0.00 0.08 0.08 99 1013.2
20260509120830 46 260 0.9 2.6 0.00 0.08 0.08 99 1013.1
20260509120327 46 66 1.7 2.6 0.02 0.08 0.08 99 1013.2
20260509115825 46 282 1.7 1.7 0.02 0.08 0.08 99 1013.2
20260509115322 46 329 0.0 1.7 0.00 0.08 0.08 99 1013.3
20260509114820 46 250 1.7 2.6 0.00 0.08 0.08 99 1013.4
20260509114318 46 280 0.9 1.7 0.00 0.08 0.08 99 1013.4
20260509113818 46 97 1.7 1.7 0.00 0.08 0.08 99 1013.3
20260509113314 46 250 2.6 2.6 0.00 0.08 0.08 99 1013.4
20260509112811 46 141 1.7 2.6 0.02 0.08 0.08 99 1013.3
20260509112308 46 230 1.7 3.5 0.02 0.08 0.08 99 1013.3
20260509111805 46 297 0.0 1.7 0.00 0.07 0.07 99 1013.6
20260509111301 46 320 0.9 1.7 0.02 0.07 0.07 99 1013.5
20260509110759 46 54 0.0 1.7 0.02 0.07 0.07 99 1013.6
20260509110255 45 287 0.0 2.6 0.00 0.07 0.07 99 1013.6
20260509105754 45 27 0.9 1.7 0.00 0.07 0.07 99 1013.4
20260509105251 45 269 0.0 1.7 0.00 0.07 0.07 99 1013.5
20260509104747 45 287 0.0 1.7 0.00 0.07 0.07 99 1013.4
20260509104244 45 250 0.0 2.6 0.02 0.07 0.07 99 1013.4
20260509103743 45 126 0.0 1.7 0.02 0.07 0.07 99 1013.1
20260509103240 45 292 0.0 1.7 0.00 0.07 0.07 99 1013.4
20260509102738 44 313 0.9 1.7 0.00 0.07 0.07 99 1013.2
20260509102234 44 327 0.9 1.7 0.00 0.07 0.07 99 1013.3
20260509101731 44 248 0.0 1.7 0.00 0.07 0.07 99 1013.3
20260509101227 44 269 0.0 1.7 0.00 0.07 0.07 99 1013.2
20260509100725 44 39 0.0 0.9 0.00 0.07 0.07 99 1013.0
20260509100222 44 147 0.0 1.7 0.00 0.07 0.07 99 1013.2
20260509095719 44 299 0.0 1.7 0.00 0.07 0.07 99 1013.3
20260509095216 44 335 0.0 0.9 0.00 0.07 0.07 99 1013.3